SWR4B LSZH-EDDF

Flight info

Callsign SWR4B
Flight time N/A
Altitude 20000
Route DEGES2X DEGES Z1 SUDEN T164 KOVAN T163 SPESA SPESA5B
Aircraft A359/H-SDE2E3GHIJ3J4J5LM1ORWXY/LB1D1

Departure

Time 2026-05-04 15:14
Airport Zürich Airport (LSZH)

Arrival

Time N/A
Airport Frankfurt Main Airport (EDDF)
Time Latitude Longitude Altitude Speed Heading
2026-05-04 14:38 47.46060 8.55438 1403 ft 0 kts
2026-05-04 15:02 47.46050 8.55437 1411 ft 4 kts
2026-05-04 15:02 47.46028 8.55434 1406 ft 3 kts
2026-05-04 15:02 47.46002 8.55428 1410 ft 4 kts 15°
2026-05-04 15:03 47.45979 8.55412 1410 ft 4 kts 52°
2026-05-04 15:03 47.45974 8.55382 1413 ft 4 kts 96°
2026-05-04 15:03 47.45976 8.55346 1412 ft 2 kts 96°
2026-05-04 15:03 47.45977 8.55344 1412 ft 0 kts 96°
2026-05-04 15:06 47.45976 8.55352 1411 ft 4 kts 96°
2026-05-04 15:07 47.45964 8.55515 1411 ft 12 kts 96°
2026-05-04 15:07 47.45954 8.55653 1405 ft 15 kts 96°
2026-05-04 15:07 47.45944 8.55793 1403 ft 14 kts 96°
2026-05-04 15:07 47.45933 8.55957 1410 ft 18 kts 95°
2026-05-04 15:08 47.45920 8.56143 1412 ft 12 kts 96°
2026-05-04 15:08 47.45914 8.56236 1404 ft 11 kts 96°
2026-05-04 15:08 47.45880 8.56299 1412 ft 8 kts 164°
2026-05-04 15:08 47.45824 8.56334 1414 ft 9 kts 126°
2026-05-04 15:09 47.45808 8.56439 1411 ft 12 kts 95°
2026-05-04 15:09 47.45799 8.56582 1412 ft 16 kts 95°
2026-05-04 15:09 47.45786 8.56754 1411 ft 16 kts 97°
2026-05-04 15:10 47.45764 8.56994 1409 ft 6 kts 116°
2026-05-04 15:10 47.45758 8.57003 1413 ft 0 kts 134°
2026-05-04 15:11 47.45749 8.57015 1416 ft 3 kts 140°
2026-05-04 15:12 47.45732 8.57028 1416 ft 4 kts 159°
2026-05-04 15:12 47.45716 8.57031 1417 ft 0 kts 174°
2026-05-04 15:12 47.45708 8.57032 1417 ft 4 kts 174°
2026-05-04 15:12 47.45683 8.57035 1416 ft 6 kts 180°
2026-05-04 15:13 47.45666 8.57015 1420 ft 2 kts 244°
2026-05-04 15:13 47.45664 8.56966 1415 ft 6 kts 276°
2026-05-04 15:13 47.45666 8.56949 1416 ft 0 kts 278°
2026-05-04 15:13 47.45670 8.56901 1415 ft 15 kts 276°
2026-05-04 15:14 47.45704 8.56427 1412 ft 92 kts 276°
2026-05-04 15:14 47.45809 8.54975 1484 ft 181 kts 277°
2026-05-04 15:14 47.45944 8.53069 2665 ft 194 kts 276°
2026-05-04 15:14 47.46094 8.50983 3611 ft 209 kts 276°
2026-05-04 15:15 47.46009 8.48812 4359 ft 217 kts 252°
2026-05-04 15:15 47.45235 8.46858 5129 ft 225 kts 232°
2026-05-04 15:15 47.44280 8.45025 6139 ft 225 kts 233°
2026-05-04 15:16 47.43150 8.40704 8173 ft 231 kts 252°
2026-05-04 15:16 47.42643 8.38443 9180 ft 233 kts 242°
2026-05-04 15:16 47.40168 8.35754 11110 ft 230 kts 186°
2026-05-04 15:17 47.38580 8.36091 11993 ft 237 kts 157°
2026-05-04 15:17 47.36672 8.39986 13834 ft 257 kts 97°
2026-05-04 15:17 47.37024 8.42594 14603 ft 269 kts 63°
2026-05-04 15:18 47.38342 8.44580 15379 ft 278 kts 28°
2026-05-04 15:18 47.40153 8.45588 16218 ft 282 kts 19°
2026-05-04 15:18 47.41847 8.47073 17030 ft 288 kts 46°
2026-05-04 15:19 47.44458 8.51930 18072 ft 323 kts 56°
2026-05-04 15:19 47.45549 8.54938 18356 ft 343 kts 75°
2026-05-04 15:19 47.46057 8.62271 18985 ft 379 kts 90°
2026-05-04 15:20 47.46170 8.66248 19430 ft 394 kts 90°
2026-05-04 15:20 47.46301 8.70297 19821 ft 402 kts 90°
2026-05-04 15:20 47.46446 8.74424 19955 ft 405 kts 90°
2026-05-04 15:20 47.46594 8.78589 19958 ft 406 kts 89°
2026-05-04 15:21 47.46575 8.82753 19965 ft 403 kts 99°
2026-05-04 15:21 47.46097 8.86817 19967 ft 401 kts 105°
2026-05-04 15:21 47.44914 8.94871 19969 ft 402 kts 105°
2026-05-04 15:22 47.44330 8.98910 19970 ft 402 kts 105°
2026-05-04 15:22 47.43751 9.02954 19968 ft 402 kts 104°
2026-05-04 15:22 47.42585 9.11030 19969 ft 402 kts 105°
2026-05-04 15:23 47.42197 9.13702 19971 ft 402 kts 105°
2026-05-04 15:23 47.41794 9.17799 19973 ft 406 kts 94°
2026-05-04 15:23 47.42490 9.23280 19975 ft 412 kts 70°
2026-05-04 15:23 47.43257 9.25849 19972 ft 413 kts 66°
2026-05-04 15:24 47.46065 9.33282 19961 ft 414 kts 60°
2026-05-04 15:24 47.49738 9.39806 19965 ft 416 kts 36°
2026-05-04 15:25 47.52256 9.41894 19966 ft 416 kts 24°
2026-05-04 15:25 47.54932 9.43513 19966 ft 416 kts 19°
2026-05-04 15:25 47.57693 9.44792 19940 ft 415 kts 11°
2026-05-04 15:26 47.63386 9.45592 19940 ft 413 kts
2026-05-04 15:26 47.66258 9.45733 19941 ft 413 kts 360°
2026-05-04 15:26 47.72010 9.45925 19939 ft 413 kts 359°
2026-05-04 15:27 47.74883 9.46036 19938 ft 413 kts 360°
2026-05-04 15:27 47.80627 9.46307 19942 ft 413 kts
2026-05-04 15:28 47.86371 9.46387 19954 ft 412 kts 358°
2026-05-04 15:28 47.89204 9.46349 19952 ft 412 kts 357°
2026-05-04 15:28 47.94938 9.46269 19953 ft 412 kts 358°
2026-05-04 15:29 47.97804 9.46244 19947 ft 412 kts 358°
2026-05-04 15:30 48.09268 9.46208 19956 ft 411 kts 358°
2026-05-04 15:30 48.17858 9.46189 19957 ft 411 kts 358°
2026-05-04 15:31 48.23588 9.46187 19952 ft 411 kts 358°
2026-05-04 15:31 48.26445 9.46193 19962 ft 411 kts 358°
2026-05-04 15:32 48.35047 9.46207 19953 ft 413 kts 358°
2026-05-04 15:32 48.40799 9.46213 19959 ft 413 kts 358°
2026-05-04 15:33 48.46509 9.46216 19957 ft 413 kts 358°
2026-05-04 15:34 48.54348 9.42280 19964 ft 396 kts 312°
2026-05-04 15:34 48.56163 9.39172 19959 ft 393 kts 304°
2026-05-04 15:34 48.59251 9.32404 19967 ft 391 kts 299°
2026-05-04 15:35 48.62717 9.26044 19970 ft 400 kts 320°
2026-05-04 15:35 48.65080 9.23787 19962 ft 402 kts 328°
2026-05-04 15:35 48.67580 9.21872 19968 ft 404 kts 332°